This demonstration page uses our WeatherBlox Daily Observations layout. Learn more.

Left ArrowRight Arrow

44.89941, -97.11507

Hourly Observations for June 17, 2018

Temp ( °F °C ) Dew Point ( °F °C ) Humidity (%) Winds ( mph kmh ) Pressure ( in mb ) Visibility ( mi km ) Precip ( " mm )
12:53 am 00:53 Mostly Cloudy 74 23.3 68 20 82 82 ENE 5 7 29.68 1005 10 16 0.00 0.00
1:53 am 01:53 Mostly Cloudy 74 23.3 70 21.1 88 88 ESE 3 6 29.67 1005 10 16 0.00 0.00
2:53 am 02:53 Mostly Cloudy 73 22.8 71 21.7 94 94 ESE 7 11 29.68 1005 10 16 0.00 0.00
3:53 am 03:53 Partly Cloudy 70 21.1 70 21.1 100 100 NNW 5 7 29.71 1006 9 14 0.00 0.00
4:07 am 04:07 Mostly Cloudy 70 21.1 70 21.1 100 100 N 6 9 29.68 1005 8 13 0.00 0.00
4:22 am 04:22 Partly Cloudy 70 21.1 70 21.1 100 100 N 5 7 29.68 1005 10 16 0.00 0.00
4:44 am 04:44 Mostly Cloudy 70 21.1 70 21.1 100 100 NNE 7 11 29.71 1006 10 16 0.00 0.00
4:53 am 04:53 Cloudy 70 21.1 70 21.1 100 100 NNE 8 13 29.72 1006 10 16 0.00 0.00
5:14 am 05:14 Cloudy with Mist and Fog 70 21.1 70 21.1 100 100 NNE 8 13 29.71 1006 6 10 0.00 0.00
5:41 am 05:41 Cloudy 70 21.1 70 21.1 100 100 NNE 10 17 29.71 1006 10 16 0.00 0.00
5:53 am 05:53 Cloudy 70 21.1 70 21.1 100 100 N 14 22 29.74 1007 9 14 0.00 0.00
6:31 am 06:31 Cloudy 70 21.1 69 20.6 97 97 NNE 12 19 29.71 1006 10 16 0.00 0.00
6:53 am 06:53 Partly Cloudy 70 21.1 69 20.6 97 97 NNE 9 15 29.74 1007 10 16 0.00 0.00
7:53 am 07:53 Mostly Sunny 70 21.1 68 20 93 93 NE 12 19 29.74 1007 10 16 0.00 0.00
8:51 am 08:51 Mostly Cloudy 70 21 66 19 88 88 NE 8 13 29.74 1007 10 16 0.00 0.00
8:53 am 08:53 Mostly Cloudy 69 20.6 67 19.4 93 93 NE 9 15 29.77 1008 10 16 0.00 0.00
9:06 am 09:06 Mostly Cloudy 70 21.1 67 19.4 90 90 NE 9 15 29.74 1007 10 16 0.00 0.00
9:33 am 09:33 Cloudy 69 20.6 66 18.9 90 90 NE 9 15 29.74 1007 10 16 0.00 0.00
9:53 am 09:53 Cloudy 68 20 65 18.3 90 90 NNE 7 11 29.79 1009 10 16 0.00 0.00
10:53 am 10:53 Partly Cloudy 69 20.6 65 18.3 87 87 NNE 9 15 29.79 1009 10 16 0.00 0.00
11:35 am 11:35 Mostly Cloudy 70 21.1 66 18.9 87 87 NNE 8 13 29.77 1008 10 16 0.00 0.00
11:53 am 11:53 Cloudy 69 20.6 66 18.9 90 90 N 10 17 29.81 1010 10 16 0.00 0.00
12:02 pm 12:02 Cloudy 70 21.1 66 18.9 87 87 N 10 17 29.77 1008 10 16 0.00 0.00
12:21 pm 12:21 Cloudy 71 21.7 66 18.9 84 84 NNE 10 17 29.77 1008 10 16 0.00 0.00
12:53 pm 12:53 Cloudy 72 22.2 67 19.4 84 84 NNE 12 19 29.82 1010 10 16 0.00 0.00
1:28 pm 13:28 Cloudy 71 21.7 67 19.4 87 87 N 10 17 29.80 1009 10 16 0.00 0.00
1:53 pm 13:53 Cloudy 69 20.6 66 18.9 90 90 NE 12 19 29.83 1010 10 16 0.00 0.00
2:53 pm 14:53 Cloudy 68 20 64 17.8 87 87 N 14 22 29.84 1011 10 16 0.00 0.00
3:09 pm 15:09 Cloudy 68 20 65 18.3 90 90 N 12 19 29.83 1010 10 16 0.00 0.00
3:53 pm 15:53 Cloudy 68 20 64 17.8 87 87 NNE 14 22 29.85 1011 10 16 0.00 0.00
4:03 pm 16:03 Cloudy 68 20 64 17.8 87 87 NNE 14 22 29.83 1010 10 16 0.00 0.00
4:53 pm 16:53 Cloudy 69 20.6 64 17.8 84 84 NNE 13 20 29.85 1011 10 16 0.00 0.00
5:53 pm 17:53 Cloudy 68 20 64 17.8 87 87 N 14 22 29.86 1011 10 16 0.00 0.00
6:53 pm 18:53 Cloudy with Light Rain 65 18.3 62 16.7 90 90 N 14 22 29.87 1011 10 16 0.00 0.03
7:11 pm 19:11 Cloudy with Light Rain 64 17.8 62 16.7 93 93 NNE 12 19 29.85 1011 3 4 0.09 2.29
7:15 pm 19:15 Cloudy with Heavy Rain 63 17.2 62 16.7 97 97 NNE 10 17 29.85 1011 2 3 0.12 3.05
7:24 pm 19:24 Cloudy with Rain 63 17.2 62 16.7 97 97 N 13 20 29.88 1012 3 5 0.14 3.56
7:33 pm 19:33 Cloudy with Rain 62 16.7 61 16.1 96 96 N 15 24 29.88 1012 3 4 0.17 4.32
7:43 pm 19:43 Cloudy with Rain 62 16.7 61 16.1 96 96 N 10 17 29.88 1012 3 5 0.19 4.83
7:53 pm 19:53 Cloudy with Light Rain 62 16.7 61 16.1 96 96 N 13 20 29.90 1013 5 8 0.20 5.08
8:53 pm 20:53 Cloudy 63 17.2 62 16.7 97 97 N 10 17 29.93 1014 10 16 0.05 1.27
9:25 pm 21:25 Cloudy with Light Rain 63 17.2 62 16.7 97 97 N 8 13 29.91 1013 3 4 0.05 1.27
9:27 pm 21:27 Cloudy with Light Rain 63 17.2 62 16.7 97 97 N 9 15 29.91 1013 3 5 0.06 1.52
9:53 pm 21:53 Cloudy with Light Rain 63 17.2 62 16.7 97 97 NNE 9 15 29.93 1014 9 14 0.07 1.78
10:53 pm 22:53 Cloudy 63 17.2 62 16.7 97 97 NNE 12 19 29.94 1014 10 16 0.00 0.03
11:53 pm 23:53 Mostly Cloudy with Light Rain 63 17.2 62 16.7 97 97 NNE 9 15 29.94 1014 10 16 0.01 0.25

Powered by AerisWeather